Hourly Data Report for September 09, 2017

All times are specified in Local Standard Time (LST). Add 1 hour to adjust for Daylight Saving Time where and when it is observed.

WINNIPEG A CS
MANITOBA

49°55'00.000" N
97°14'58.000" W
238.70 m
502S001
71849
XWG

Download Data

Hourly Data (September 2017)
Hourly Data Report for September 9, 2017
Temp Definition
°C
Dew Point Temp Definition
°C
Rel Hum Definition
%
Wind Dir Definition
10's deg

Wind Spd Definition
km/h
Visibility Definition
km
Stn Press Definition
kPa
Hmdx Definition


Wind Chill Definition


Weather Definition


TIME
00:00 13.6 6.1 60 17 21   99.37     LegendNANA
01:00 12.8 6.0 63 17 21   99.37     LegendNANA
02:00 12.0 5.9 66 17 20   99.38     LegendNANA
03:00 11.2 5.7 69 17 20   99.37     LegendNANA
04:00 10.6 6.1 73 16 19   99.36     LegendNANA
05:00 10.7 6.2 74 16 21   99.35     LegendNANA
06:00 10.7 6.3 74 16 21   99.37     LegendNANA
07:00 11.6 6.2 70 16 25   99.33     LegendNANA
08:00 13.0 6.6 65 16 25   99.33     LegendNANA
09:00 15.9 7.8 59 17 25   99.29     LegendNANA
10:00 18.8 9.3 54 17 27   99.25     LegendNANA
11:00 20.4 10.1 52 15 26   99.17     LegendNANA
12:00 22.4 11.2 49 16 26   99.13     LegendNANA
13:00 24.7 11.4 43 15 28   99.04 27   LegendNANA
14:00 25.8 11.7 41 15 29   98.97 28   LegendNANA
15:00 27.0 12.0 39 16 29   98.90 29   LegendNANA
16:00 27.2 12.2 40 16 34   98.85 30   LegendNANA
17:00 27.0 11.8 39 15 29   98.77 29   LegendNANA
18:00 26.1 12.2 42 15 24   98.74 28   LegendNANA
19:00 24.3 12.6 48 16 21   98.73 27   LegendNANA
20:00 22.6 13.1 55 15 19   98.78 25   LegendNANA
21:00 20.8 13.9 64 16 18   98.79     LegendNANA
22:00 20.8 13.4 63 17 29   98.79     LegendNANA
23:00 20.8 13.9 65 17 30   98.79     LegendNANA

Notes on Data Quality.

Legend

  • E = Estimated
  • M = Missing
  • NA = Not Available
  • ‡ = Partner data that is not subject to review by the National Climate Archives
Date modified: